Regional Weather Roundup
Issued by NWS

Home | Current Version | Previous Version | Graphics & Text | Print | Product List | Glossary On
Versions: 1 2 3 4 5 6 7 8 9 10 11 12 13 14 15 16 17 18 19 20 21 22 23 24 25 26 27 28 29 30 31 32 33 34 35 36 37 38 39 40 41 42 43 44 45 46 47 48 49 50
813
ASUS44 KLIX 201112
RWRLA
LOUISIANA WEATHER ROUNDUP
NATIONAL WEATHER SERVICE NEW ORLEANS LA
600 AM CDT MON APR 20 2015

NOTE: "FAIR" INDICATES FEW OR NO CLOUDS BELOW 12,000 FEET WITH NO
      SIGNIFICANT WEATHER AND/OR OBSTRUCTIONS TO VISIBILITY.
      SKY/WX - SKY CONDITION AND SIGNIFICANT WEATHER.
      TMP - AIR TEMPERATURE.    DP   - DEWPOINT TEMPERATURE.
      RH  - RELATIVE HUMIDITY.  PRES - PRESSURE.
      HX  - HEAT INDEX.         WCI  - WIND CHILL INDEX.

*  THESE STATIONS ARE NOT NWS OR FAA STATIONS AND ARE NOT UNDER
   NWS QUALITY CONTROL.

LAZ040-048-061>063-065-066-069-201200-
SOUTHEAST LOUISIANA

CITY           SKY/WX    TMP DP  RH WIND       PRES   REMARKS
N.O. AUDUBON     N/A     70  69  96 MISG        N/A
N.O. INTL ARPT MOCLDY    70  66  87 W7        29.79R
N.O. LAKEFRONT MOCLDY    76  68  76 W14       29.79R
SLIDELL        MOCLDY    71  67  87 VRB3      29.78
BATON ROUGE    PTCLDY    64  63  96 W3        29.81R
BOOTHVILLE     CLOUDY    74  70  87 S7        29.80R
BELLE CHASSE   CLOUDY    71  62  73 VRB5      29.78R
BOGALUSA*        N/A     65  61  89 SW3       29.79R
GALLIANO*      CLOUDY    75  62  64 W7        29.79R
NEW ROADS*     FAIR      65  59  79 W8        29.82R
GONZALES*      FAIR      66  66 100 CALM      29.80R
HAMMOND*       PTCLDY    68  63  83 NW6       29.81R
HOUMA*         CLOUDY    70  63  78 W5        29.80R
PORT FOURCHON* PTSUNNY   75  66  73 SW3       29.83R

$$

LAZ041-044-053-054-201200-
SOUTHWEST LOUISIANA

CITY           SKY/WX    TMP DP  RH WIND       PRES   REMARKS
LAKE CHARLES   CLEAR     64  57  78 NW8       29.85R
LAFAYETTE      CLEAR     66  62  87 W6        29.83R
PATTERSON      MOCLDY    66  61  82 W3        29.83R
SALT POINT       N/A     72  60  66 NW3       29.80R
NEW IBERIA     PTCLDY    65  61  87 W5        29.83R
CHENAULT AIRPK CLEAR     63  55  77 NW12      29.86R

$$

LAZ027-028-201200-
CENTRAL LOUISIANA

CITY           SKY/WX    TMP DP  RH WIND       PRES   REMARKS
FORT POLK      CLEAR     58  54  86 NW13      29.85R
ALEXANDRIA INT CLEAR     59  56  89 NW9       29.83R
ALEXANDRIA     CLEAR     58  55  90 NW3       29.83R

$$

LAZ001-002-201200-
NORTHWEST LOUISIANA

CITY           SKY/WX    TMP DP  RH WIND       PRES   REMARKS
SHREVEPORT     CLEAR     54  46  74 NW13      29.90R
BARKSDALE AFB  CLEAR     55  46  72 NW15      29.89R
DTN SHREVEPORT CLEAR     54  45  71 NW13G20   29.90R

$$

LAZ014-016-201200-
NORTHEAST LOUISIANA

CITY           SKY/WX    TMP DP  RH WIND       PRES   REMARKS
MONROE         CLEAR     60  53  77 NW16      29.82R
TALLULAH       CLEAR     62  56  80 NW5       29.79R

$$




USA.gov is the U.S. government's official web portal to all federal, state and local government web resources and services.